STARLINK-33737, 63456

Orbit data source: Space-Track

STARLINK-33737, 63456 is a payload satellite owned by SpaceX/Seattle (US) in LEO that was launched on Fri, 04 Apr 2025 UTC via an FALCON 9 launch vehicle from the Air Force Western Test Range (AFWTR). Payload-class satellites include a variety of spacecraft equipped with specific instruments for various scientific and technological missions. These include communications satellites like Starlink; space stations such as the ISS; scientific satellites like the Hubble; Earth observation satellites from companies like Planet Labs, Umbra, and HawkEye 360; GPS; miniature CubeSats for education and research; and military/defense satellites.

Loading next visibility...
Identifier
63456, 2025-069Z
Orbit
LEO
Country
Flag of USUS
Related business
Manufacturer
SpaceX/Seattle
Mission
Operational Commercial Communications
Bus & Motor
STARLINK V2MO, Unknown motor
Mass
575 kg wet, ~530 kg dry
Launch date (UTC)
2025-04-04 (8 months ago)
Launch vehicle
FALCON 9
Launch site
Air Force Western Test Range (AFWTR)
Object type
Payload
Rocket body
Debris
Shape & HBR
Box + 2 Pan, 17.7 m
Radar Cross Section
36.964 m², Large (>1 m²)

Expand to show TLE details & history
Last TLE update: 21 hours ago

TLE from 21 hours ago
0 STARLINK-33737
1 63456U 25069Z   25348.83020901  .00016926  00000-0  58223-3 0  9998
2 63456  53.1570 176.5263 0001159  88.4026 271.7107 15.30203521 40305
Epoch: 2025-12-14T19:55Z
TLE epoch observation values (Epoch: 2025-12-14T19:55:30.058Z)
Latitude
-0.00006°
Longitude
153.91352°
Altitude
476.08 km
Speed
7.629 km/s
True Right ascension
11h 46m 06s
True Declination
0° 00' 00"
Sunlit
Object was in daylight at epoch
Visualization orbit readout
Latitude
Unknown
Longitude
Unknown
Altitude
Unknown
Speed
Unknown
Apparent Right ascension
Unknown
Apparent Declination
Unknown
Sunlit
N/A
Visualization observer readout
Local Sidereal Time
15:08:56
Azimuth
Unknown
Elevation
Unknown
Doppler factor
Unknown
Orbital elements
Apogee altitude
476.256 km
Perigee altitude
474.667 km
Semi-major axis
6,853.598 km
Eccentricity
0.00012
Inclination
53.157°
RAAN
176.5263°
Arg. of periapsis
88.4026°
True anomaly
271.69742°
Mean anomaly
271.7107°
Eccentric anomaly
271.70406°
Mean motion
3.8253 °/min
Orbital period
94.11 mins
BSTAR
0.00058223
Loading maneuver chart data...
Computing Atmospheric mass density...
Loading historical data...
Loading historical data...
Loading historical data...
Loading historical data...
Loading historical data...
Loading historical data...
Loading historical data...

Documentation

Showing up to 5 results
|